[[{"header":{"parameterUnit":"m.s-1","parameterCategory":1,"la1":30.2991,"la2":30.254,"lo1":-89.0895,"lo2":-89.0444,"dy":0.0017,"dx":0.0017,"nx":28,"ny":28,"refTime":"2024-05-29T03:00:00:Z","depth":0,"parameterNumber":2,"parameterNumberName":"U-component_of_WINDS"},"data":[0,0,0,0,0,0,0,0,0,0,0,0,0,0,0,0,0,0,0,0,0,0,0,0,0,0,0,0,0,0,0,0,0,0,0,0,0,0,0,0,0,0,0,0,0,0,0,0,0,0,0,0,0,0,0,0,0,0,-3.0886,-3.0886,0,-3.0855,-3.0855,-3.0854,-3.0788,-3.0787,-3.0785,-3.0784,-3.075,-3.0751,-3.0751,0,0,0,0,0,0,0,0,0,0,0,0,0,-3.0889,-3.089,-3.0886,-3.0886,-3.0885,-3.0855,-3.0855,-3.0854,-3.0788,-3.0787,-3.0785,-3.0784,-3.075,-3.0751,-3.0751,0,0,0,0,0,0,0,0,0,0,0,0,0,-3.0876,-3.089,-3.0886,-3.0849,-3.0845,-3.0855,-3.0855,-3.0854,-3.0789,-3.0787,-3.0785,-3.0783,-3.075,-3.0751,-3.0751,-3.0794,0,0,-3.0753,-3.0753,0,0,0,0,0,0,0,0,-3.0877,-3.0876,-3.0855,-3.0851,-3.0847,-3.0823,-3.0843,-3.0834,-3.0789,-3.081,-3.0784,-3.0782,-3.0776,-3.0774,-3.0773,-3.0793,-3.0791,-3.0753,-3.0753,-3.0753,-3.0753,0,0,0,0,0,0,0,-3.0878,-3.0877,-3.0874,-3.0855,-3.085,-3.0834,-3.083,-3.0841,-3.0805,-3.0808,-3.0803,-3.0801,-3.0774,-3.0773,-3.0772,-3.0791,-3.0753,-3.0753,-3.0753,-3.0754,-3.0846,-3.0848,0,0,0,0,0,0,-3.0884,-3.0878,-3.0875,-3.0873,-3.0858,-3.0836,-3.0831,-3.0833,-3.0804,-3.0798,-3.0802,-3.0798,-3.0773,-3.0771,-3.077,-3.0819,-3.0753,-3.0754,-3.0754,-3.0844,-3.0847,-3.0849,0,0,0,0,0,0,-3.0885,-3.0885,-3.0876,-3.0874,-3.0872,-3.0838,-3.0841,-3.0834,-3.0832,-3.08,-3.0793,-3.0808,-3.0771,-3.0769,-3.0789,-3.0817,-3.0754,-3.0754,-3.0842,-3.0845,-3.0848,-3.0917,0,0,0,0,0,0,-3.0885,-3.0885,-3.0901,-3.0875,-3.0872,-3.0895,-3.0842,-3.0834,-3.0833,-3.0827,-3.0803,-3.0797,-3.0769,-3.0789,-3.079,-3.0816,-3.0755,-3.0839,-3.0843,-3.0847,-3.0912,-3.0922,-3.0931,0,0,0,0,0,-3.0885,-3.092,-3.0902,-3.0902,-3.0891,-3.0897,-3.0895,-3.0863,-3.0836,-3.0851,-3.0831,-3.0798,-3.0815,-3.0791,-3.0792,-3.0819,-3.0837,-3.0842,-3.0846,-3.0908,-3.092,-3.093,0,0,0,0,0,0,-3.0948,-3.0916,-3.0895,-3.0923,-3.0914,-3.0886,-3.0904,-3.0877,-3.0874,-3.0868,-3.0828,-3.0823,-3.0849,-3.0836,-3.0811,-3.086,-3.082,-3.0826,-3.0867,-3.0878,-3.0888,-3.0889,-3.0755,0,0,0,0,0,-3.0966,-3.0974,-3.0945,-3.0973,-3.0969,-3.0938,-3.0939,-3.0916,-3.0904,-3.0899,-3.088,-3.087,-3.0873,-3.0875,-3.0876,-3.0911,-3.0905,-3.093,-3.094,-3.0948,-3.0952,-3.097,-3.0981,-3.0865,-3.0865,-3.0865,0,0,-3.1001,-3.0985,-3.0992,-3.0985,-3.0975,-3.0984,-3.0935,-3.0946,-3.0952,-3.0901,-3.0918,-3.0905,-3.0891,-3.0919,-3.093,-3.0909,-3.0984,-3.0954,-3.0961,-3.096,-3.0977,-3.0988,-3.0997,-3.0868,-3.0868,-3.0867,0,0,-3.107,-3.1059,-3.108,-3.1072,-3.1058,-3.1038,-3.1044,-3.1021,-3.1011,-3.1028,-3.099,-3.0998,-3.1004,-3.0995,-3.0992,-3.1063,-3.1032,-3.1065,-3.1113,-3.1131,-3.1141,-3.1148,-3.1173,-3.1183,-3.107,-3.107,-3.107,0,-3.1115,-3.1127,-3.1095,-3.1109,-3.1108,-3.1064,-3.1087,-3.108,-3.1067,-3.1067,-3.1045,-3.1053,-3.104,-3.1066,-3.1084,-3.1083,-3.1088,-3.1065,-3.1142,-3.115,-3.1156,-3.118,-3.1189,-3.1074,-3.1073,-3.1073,-3.1072,0,-3.1184,-3.1193,-3.1213,-3.1203,-3.1204,-3.1222,-3.1194,-3.1199,-3.1177,-3.1159,-3.1179,-3.1163,-3.1161,-3.1166,-3.1143,-3.119,-3.1177,-3.1149,-3.1108,-3.1172,-3.1193,-3.1202,-3.1079,-3.1078,-3.1077,-3.1076,0,0,-3.1287,-3.1262,-3.1269,-3.1265,-3.1249,-3.1255,-3.1273,-3.1272,-3.1277,-3.1271,-3.1285,-3.1293,-3.1268,-3.1265,-3.1242,-3.1259,-3.1316,-3.1228,-3.1227,-3.1244,-3.1366,-3.1386,-3.1396,-3.1297,-3.1299,-3.13,-3.1367,0,-3.135,-3.1378,-3.1352,-3.1385,-3.1394,-3.1355,-3.137,-3.1362,-3.1348,-3.1354,-3.1337,-3.1343,-3.131,-3.1308,-3.1323,-3.1306,-3.1339,-3.1301,-3.1309,-3.1309,-3.1311,-3.1407,-3.1428,-3.1491,-3.1375,-3.1376,-3.1377,0,-3.1426,-3.1426,-3.146,-3.1444,-3.1447,-3.1461,-3.1459,-3.1465,-3.1457,-3.1445,-3.1443,-3.1417,-3.1434,-3.1396,-3.1419,-3.1394,-3.1396,-3.1389,-3.139,-3.1387,-3.1345,-3.1406,-3.151,-3.1519,-3.139,-3.1389,-3.1388,0,-3.1497,-3.1505,-3.1527,-3.1525,-3.1506,-3.1518,-3.151,-3.15,-3.1502,-3.1501,-3.1502,-3.1503,-3.1503,-3.1505,-3.1479,-3.1454,-3.1506,-3.1466,-3.1496,-3.1497,-3.1506,-3.1505,-3.1611,-3.1511,-3.1511,-3.1511,-3.1511,0,-3.1569,-3.1592,-3.1559,-3.1572,-3.1597,-3.1567,-3.1593,-3.1582,-3.1574,-3.1584,-3.1552,-3.1563,-3.153,-3.1538,-3.1518,-3.1541,-3.1541,-3.1532,-3.1526,-3.1534,-3.1535,-3.1533,-3.1527,-3.1513,-3.1513,-3.1512,-3.1512,0,-3.1651,-3.163,-3.1651,-3.1633,-3.163,-3.1649,-3.1633,-3.1646,-3.1631,-3.1645,-3.1647,-3.1623,-3.1631,-3.1607,-3.1611,-3.1598,-3.1631,-3.1618,-3.1633,-3.1629,-3.166,-3.1657,-3.1766,-3.1779,-3.1673,-3.1674,-3.1675,0,-3.1697,-3.1714,-3.1699,-3.1704,-3.1699,-3.1709,-3.1711,-3.1684,-3.1688,-3.1682,-3.1695,-3.1701,-3.1703,-3.1718,-3.1701,-3.1704,-3.1691,-3.1729,-3.1691,-3.1699,-3.169,-3.1689,-3.1691,-3.1736,-3.1738,-3.1739,-3.1739,0,-3.1781,-3.1771,-3.1776,-3.1779,-3.1783,-3.1783,-3.1782,-3.1788,-3.176,-3.1766,-3.1775,-3.1777,-3.1783,-3.1789,-3.1789,-3.1782,-3.1756,-3.1753,-3.1759,-3.1766,-3.1774,-3.1769,-3.1653,-3.1749,-3.1748,-3.1747,-3.1747,-3.1747,-3.1846,-3.1859,-3.1852,-3.1859,-3.1856,-3.1856,-3.1866,-3.1854,-3.1861,-3.1863,-3.1848,-3.186,-3.1853,-3.1852,-3.1848,-3.1857,-3.1839,-3.185,-3.1852,-3.1854,-3.1859,-3.1775,-3.1857,-3.1857,-3.1857,-3.1856,-3.1856,0,-3.1927,-3.1922,-3.1929,-3.1928,-3.1935,-3.1913,-3.191,-3.1917,-3.1928,-3.1925,-3.1929,-3.194,-3.1947,-3.1932,-3.1937,-3.1947,-3.1936,-3.1949,-3.1947,-3.1946,-3.1875,-3.1868,-3.1959,-3.1959,-3.1959,-3.1959,-3.1959,-3.1959,-3.197,-3.1993,-3.1982,-3.2003,-3.1997,-3.2009,-3.201,-3.201,-3.2007,-3.2021,-3.2027,-3.2018,-3.201,-3.2015,-3.2021,-3.2016,-3.2019,-3.2036,-3.2028,-3.1961,-3.1951,-3.1941,-3.1934,-3.2038,-3.2038,-3.2098,-3.2098,-3.2099]},{"header":{"parameterUnit":"m.s-1","parameterCategory":1,"la1":30.2991,"la2":30.254,"lo1":-89.0895,"lo2":-89.0444,"dy":0.0017,"dx":0.0017,"nx":28,"ny":28,"refTime":"2024-05-29T03:00:00:Z","depth":0,"parameterNumber":3,"parameterNumberName":"V-component_of_WINDS"},"data":[0,0,0,0,0,0,0,0,0,0,0,0,0,0,0,0,0,0,0,0,0,0,0,0,0,0,0,0,0,0,0,0,0,0,0,0,0,0,0,0,0,0,0,0,0,0,0,0,0,0,0,0,0,0,0,0,0,0,3.4805,3.4805,0,3.4799,3.4799,3.4799,3.4823,3.4824,3.4824,3.4825,3.4813,3.4812,3.4811,0,0,0,0,0,0,0,0,0,0,0,0,0,3.4835,3.4834,3.4805,3.4805,3.4805,3.4799,3.4799,3.4799,3.4823,3.4824,3.4825,3.4826,3.4814,3.4813,3.4811,0,0,0,0,0,0,0,0,0,0,0,0,0,3.4825,3.4834,3.4805,3.4817,3.4818,3.4799,3.4799,3.4799,3.4823,3.4824,3.4825,3.4826,3.4814,3.4813,3.4811,3.478,0,0,3.4807,3.4806,0,0,0,0,0,0,0,0,3.4825,3.4823,3.4815,3.4816,3.4817,3.4813,3.4805,3.4792,3.4822,3.4821,3.4825,3.4826,3.4812,3.4811,3.4807,3.4779,3.4779,3.4807,3.4806,3.4805,3.4805,0,0,0,0,0,0,0,3.4826,3.4824,3.4803,3.4815,3.4816,3.4821,3.4821,3.4803,3.481,3.4821,3.4823,3.4822,3.4813,3.4808,3.4807,3.4779,3.4807,3.4805,3.4804,3.4804,3.4727,3.4726,0,0,0,0,0,0,3.4826,3.4824,3.4803,3.4803,3.4824,3.4819,3.4819,3.4813,3.481,3.4811,3.4821,3.4823,3.481,3.4809,3.4807,3.4771,3.4805,3.4804,3.4803,3.4728,3.4727,3.4726,0,0,0,0,0,0,3.4826,3.4824,3.4803,3.4814,3.4812,3.4818,3.4811,3.4812,3.4808,3.4811,3.4811,3.4815,3.4811,3.4809,3.4787,3.4771,3.4803,3.4802,3.4729,3.4728,3.4726,3.4699,0,0,0,0,0,0,3.4827,3.4824,3.4812,3.4814,3.4811,3.4785,3.481,3.4811,3.4806,3.4809,3.4806,3.4806,3.4812,3.4789,3.4786,3.4769,3.48,3.4731,3.4729,3.4727,3.4701,3.4696,3.4692,0,0,0,0,0,3.4828,3.4803,3.4812,3.4809,3.4798,3.4784,3.4782,3.4791,3.4805,3.4793,3.4795,3.4806,3.4773,3.4787,3.4783,3.4766,3.4732,3.4729,3.4727,3.4703,3.4697,3.4692,0,0,0,0,0,0,3.4798,3.4804,3.4813,3.4788,3.4786,3.4788,3.4773,3.4784,3.4776,3.4779,3.4788,3.4788,3.4764,3.4763,3.4778,3.4737,3.4755,3.4751,3.4738,3.4733,3.4728,3.4729,3.4799,0,0,0,0,0,3.4789,3.4779,3.4784,3.4761,3.476,3.4767,3.4761,3.4769,3.4765,3.4764,3.4764,3.4759,3.4748,3.474,3.473,3.4701,3.4701,3.4688,3.4683,3.468,3.4676,3.4662,3.4657,3.4717,3.4717,3.4717,0,0,3.4769,3.4771,3.4763,3.4755,3.4754,3.4743,3.4766,3.4752,3.4743,3.4761,3.4742,3.4742,3.4737,3.4712,3.4701,3.471,3.466,3.4677,3.4674,3.4672,3.4659,3.4654,3.4648,3.4715,3.4716,3.4716,0,0,3.4727,3.4728,3.471,3.4709,3.4708,3.4713,3.4709,3.471,3.4712,3.4693,3.4707,3.4696,3.4676,3.4673,3.4669,3.4628,3.4638,3.4625,3.4601,3.4587,3.4582,3.4578,3.4564,3.4559,3.4621,3.4621,3.4621,0,3.4702,3.4687,3.4699,3.4685,3.4681,3.47,3.4682,3.468,3.4674,3.4671,3.4682,3.4659,3.4657,3.4633,3.4623,3.4619,3.4614,3.4624,3.4582,3.4578,3.4575,3.4561,3.4556,3.462,3.462,3.462,3.462,0,3.4656,3.4645,3.4631,3.4628,3.4623,3.4607,3.4616,3.4609,3.4617,3.4621,3.4602,3.4601,3.4592,3.4587,3.4593,3.4563,3.4569,3.4581,3.46,3.4567,3.4555,3.455,3.4617,3.4618,3.4618,3.4619,0,0,3.4593,3.46,3.4595,3.4594,3.4595,3.4587,3.4571,3.4565,3.4559,3.4555,3.4542,3.4527,3.4538,3.4533,3.454,3.4528,3.4498,3.4542,3.4542,3.4534,3.4465,3.4456,3.445,3.4505,3.4504,3.4503,3.4466,0,3.4553,3.453,3.4541,3.4516,3.4506,3.4525,3.4512,3.4511,3.4514,3.4506,3.4509,3.4499,3.4515,3.4512,3.4501,3.4504,3.4484,3.4507,3.4493,3.4492,3.4493,3.4444,3.4434,3.4399,3.4461,3.446,3.446,0,3.4502,3.4499,3.4474,3.4479,3.4475,3.4463,3.4459,3.4451,3.445,3.4453,3.445,3.446,3.4445,3.4464,3.4444,3.4459,3.4454,3.4455,3.4454,3.4452,3.4474,3.4441,3.4388,3.4382,3.4452,3.4453,3.4453,0,3.446,3.4449,3.4433,3.4432,3.4437,3.4429,3.443,3.4431,3.4426,3.4422,3.4419,3.4412,3.4408,3.4403,3.4411,3.4424,3.4389,3.4409,3.4392,3.4391,3.4383,3.4383,3.4328,3.438,3.438,3.438,3.438,0,3.4414,3.4397,3.4414,3.4404,3.4387,3.44,3.4382,3.4385,3.4386,3.4376,3.4391,3.4381,3.4393,3.4384,3.439,3.4373,3.4371,3.4373,3.4375,3.4372,3.4371,3.4368,3.4371,3.4379,3.4379,3.4379,3.4379,0,3.4363,3.4374,3.4358,3.4365,3.4366,3.4353,3.4358,3.4349,3.4355,3.4343,3.434,3.4349,3.434,3.4348,3.4338,3.4342,3.4319,3.4324,3.432,3.4321,3.4304,3.4305,3.4244,3.4237,3.4294,3.4293,3.4293,0,3.4333,3.4321,3.4328,3.4324,3.4325,3.4317,3.4314,3.4327,3.4322,3.4322,3.4313,3.4305,3.43,3.4284,3.4289,3.4282,3.4287,3.4266,3.4286,3.4284,3.4287,3.4288,3.4287,3.4262,3.4261,3.4261,3.426,0,3.4278,3.4285,3.428,3.4278,3.4274,3.4272,3.4271,3.4266,3.428,3.4274,3.4266,3.4262,3.4254,3.4246,3.4241,3.4242,3.4253,3.4254,3.425,3.4246,3.4245,3.4246,3.4309,3.4255,3.4256,3.4256,3.4256,3.4256,3.4237,3.4228,3.4232,3.4227,3.4228,3.4228,3.422,3.4226,3.422,3.4216,3.4223,3.4214,3.4214,3.4209,3.4209,3.4201,3.4209,3.4203,3.4201,3.4199,3.4197,3.4246,3.4199,3.42,3.42,3.42,3.42,0,3.4183,3.4188,3.4183,3.4183,3.4178,3.4192,3.4192,3.4187,3.4179,3.418,3.4175,3.4167,3.416,3.4165,3.4159,3.4152,3.4157,3.415,3.415,3.415,3.4189,3.4194,3.4146,3.4146,3.4146,3.4146,3.4146,3.4146,3.4155,3.4141,3.4148,3.4135,3.4139,3.4132,3.4131,3.413,3.4131,3.4122,3.4117,3.4121,3.4124,3.4119,3.4113,3.4115,3.4112,3.4103,3.4106,3.4142,3.4147,3.4153,3.4157,3.4102,3.4102,3.4068,3.4068,3.4068]}]]